Skip Page Navigation
NASA JPL Caltech
NASA Logo - Jet Propulsion Laboratory + View the NASA Portal
+ Near-Earth Object (NEO) Program
Search JPL
JPL Home Earth Solar System Stars & Galaxies Technology
JPL Solar System Dynamics
BODIES ORBITS EPHEMERIDES TOOLS PHYSICAL DATA DISCOVERY FAQ SITE MAP
JPL Small-Body Database Browser
Search: [ help ]  
264357 (2000 AZ93)
Classification: Aten [NEO, PHA]          SPK-ID: 2264357
Ephemeris | Orbit Diagram | Orbital Elements | Physical Parameters | Discovery Circumstances | Close-Approach Data ]

[ hide orbit diagram ]
Orbit Diagram
Note: Make sure you have Java enabled on your browser to see the applet. This applet is provided as a 3D orbit visualization tool. The applet was implemented using 2-body methods, and hence should not be used for determining accurate long-term trajectories (over several years or decades) or planetary encounter circumstances. For accurate long-term ephemerides, please instead use our Horizons system.
Orbit Viewer

Additional Notes: the orbits shown in the applet are color coded. The planets are white lines, and the asteroid/comet is a blue line. The bright white line indicates the portion of the orbit that is above the ecliptic plane, and the darker portion is below the ecliptic plane. Likewise for the asteroid/comet orbit, the light blue indicates the portion above the ecliptic plane, and the dark blue the portion below the ecliptic plane.

Orbit Viewer applet originally written and kindly provided by Osamu Ajiki (AstroArts), and further modified by Ron Baalke (JPL).


Orbital Elements at Epoch 2456400.5 (2013-Apr-18.0) TDB
Reference: JPL 29 (heliocentric ecliptic J2000)
 Element Value Uncertainty (1-sigma)   Units 
e .36028332056641 1.125e-07  
a .7466259956356971 3.0558e-09 AU
q .4776291027068662 8.5218e-08 AU
i 8.57991364039008 2.3919e-05 deg
node 277.4399379785966 2.4678e-05 deg
peri 8.013407990192066 4.0923e-05 deg
M 16.18483692692884 6.3456e-05 deg
tp 2456389.906025715800
(2013-Apr-07.40602572)
4.1531e-05 JED
period 235.6422100222954
0.65
1.4467e-06
3.961e-09
d
yr
n 1.527739872945252 9.3792e-09 deg/d
Q 1.015622888564528 4.1568e-09 AU
  Orbit Determination Parameters
   # obs. used (total)      120  
   data-arc span      4042 days (11.07 yr)  
   first obs. used      2000-01-07  
   last obs. used      2011-01-31  
   planetary ephem.      DE405  
   SB-pert. ephem.      SB405-CPV-2  
   condition code      0  
   fit RMS      .53872  
   data source      ORB  
   producer      Otto Matic  
   solution date      2013-Apr-29 15:41:04  

Additional Information
 Earth MOID = .0214311 AU 
 T_jup = 7.668 
[ show covariance matrix ]

Ephemeris | Orbit Diagram | Orbital Elements | Physical Parameters | Discovery Circumstances | Close-Approach Data ]

Physical Parameter Table
Parameter Symbol Value Units Sigma Reference Notes
absolute magnitude H 20.597 mag .88308 29 autocmod 2.5c

264357 (2000 AZ93)          Discovered 2000-Jan-07 by LINEAR at Socorro (704)
Reference: 20110218/Numbers.arcLast Updated: 2011-02-22

[ show close-approach data ]
Ephemeris | Orbit Diagram | Orbital Elements | Physical Parameters | Discovery Circumstances | Close-Approach Data ]
ABOUT SSD CREDITS/AWARDS PRIVACY/COPYRIGHT GLOSSARY LINKS
FirstGov 2013-May-23 04:09 UT
(server date/time)  
NASA Home Page
Site Manager:   Donald K. Yeomans
Webmaster  Alan B. Chamberlin